[[{"header":{"parameterUnit":"m.s-1","parameterCategory":1,"la1":30.2991,"la2":30.254,"lo1":-89.0895,"lo2":-89.0444,"dy":0.0017,"dx":0.0017,"nx":28,"ny":28,"refTime":"2025-03-31T21:00:00:Z","depth":0,"parameterNumber":2,"parameterNumberName":"U-component_of_WINDS"},"data":[0,0,0,0,0,0,0,0,0,0,0,0,0,0,0,0,0,0,0,0,0,0,0,0,0,0,0,0,0,0,0,0,0,0,0,0,0,0,0,0,0,0,0,0,0,0,0,0,0,0,0,0,0,0,0,0,0,0,-4.9372,-4.9374,0,-4.95,-4.9502,-4.9503,-4.9517,-4.9516,-4.9514,-4.9513,-4.9644,-4.9649,-4.9653,0,0,0,0,0,0,0,0,0,0,0,0,0,-4.914,-4.9144,-4.9372,-4.9374,-4.9375,-4.95,-4.9502,-4.9504,-4.9517,-4.9516,-4.9514,-4.9513,-4.9643,-4.9648,-4.9654,0,0,0,0,0,0,0,0,0,0,0,0,0,-4.9251,-4.9145,-4.9372,-4.9397,-4.9401,-4.95,-4.9502,-4.9504,-4.9518,-4.9516,-4.9514,-4.9512,-4.9641,-4.9648,-4.9654,-4.9737,0,0,-4.9676,-4.9679,0,0,0,0,0,0,0,0,-4.9245,-4.926,-4.9392,-4.9396,-4.94,-4.9491,-4.9468,-4.9582,-4.9518,-4.9473,-4.9513,-4.9511,-4.9595,-4.9605,-4.9634,-4.9743,-4.9749,-4.9677,-4.9681,-4.9684,-4.9686,0,0,0,0,0,0,0,-4.9237,-4.9254,-4.9423,-4.9394,-4.9399,-4.9402,-4.9416,-4.949,-4.9543,-4.9477,-4.9478,-4.9493,-4.9596,-4.9627,-4.9637,-4.9751,-4.9676,-4.9683,-4.9687,-4.969,-4.9935,-4.9938,0,0,0,0,0,0,-4.9225,-4.9248,-4.9419,-4.9427,-4.9316,-4.9408,-4.9423,-4.9463,-4.9542,-4.9553,-4.9495,-4.9493,-4.9616,-4.9629,-4.9641,-4.9743,-4.9684,-4.9691,-4.9695,-4.9933,-4.9936,-4.9938,0,0,0,0,0,0,-4.922,-4.924,-4.9414,-4.9338,-4.936,-4.9414,-4.9459,-4.9467,-4.9497,-4.9556,-4.9566,-4.9516,-4.9615,-4.9632,-4.9713,-4.9748,-4.9694,-4.97,-4.993,-4.9934,-4.9937,-4.9947,0,0,0,0,0,0,-4.9213,-4.9238,-4.927,-4.9338,-4.9364,-4.9483,-4.9461,-4.9471,-4.951,-4.9509,-4.9578,-4.9588,-4.9614,-4.9703,-4.972,-4.9757,-4.9706,-4.9928,-4.9932,-4.9936,-4.9944,-4.995,-4.9956,0,0,0,0,0,-4.9205,-4.9267,-4.9271,-4.9292,-4.9405,-4.9485,-4.95,-4.9529,-4.9512,-4.9545,-4.9583,-4.9586,-4.9742,-4.9711,-4.9731,-4.977,-4.9925,-4.9931,-4.9936,-4.9941,-4.9949,-4.9956,0,0,0,0,0,0,-4.9201,-4.9277,-4.9282,-4.9368,-4.942,-4.9487,-4.9529,-4.9537,-4.9594,-4.9591,-4.9625,-4.9641,-4.9721,-4.9754,-4.9718,-4.9854,-4.9832,-4.9841,-4.9829,-4.9837,-4.9843,-4.9833,-4.9711,0,0,0,0,0,-4.921,-4.9269,-4.9332,-4.9402,-4.9428,-4.9474,-4.951,-4.9528,-4.9583,-4.9605,-4.9649,-4.9702,-4.9763,-4.9802,-4.9862,-4.995,-4.9965,-4.9986,-4.9992,-4.9997,-5.0004,-5.0053,-5.0063,-4.9955,-4.9955,-4.9955,0,0,-4.9229,-4.9278,-4.9313,-4.9403,-4.9445,-4.9505,-4.9492,-4.9556,-4.9601,-4.9615,-4.9694,-4.9729,-4.9791,-4.9876,-4.9915,-4.9906,-5.0038,-5.0004,-5.0007,-5.0012,-5.0059,-5.0069,-5.0078,-4.9959,-4.9958,-4.9958,0,0,-4.9295,-4.9338,-4.9402,-4.9445,-4.9509,-4.9539,-4.9555,-4.9621,-4.9644,-4.9725,-4.9737,-4.9791,-4.9896,-4.9939,-4.9975,-5.0059,-5.0064,-5.0078,-5.0109,-5.0156,-5.0164,-5.0172,-5.0201,-5.0211,-5.0085,-5.0085,-5.0085,0,-4.9311,-4.9402,-4.9433,-4.9497,-4.9536,-4.9552,-4.9616,-4.9657,-4.9737,-4.9764,-4.9752,-4.9884,-4.9927,-5.0022,-5.0043,-5.0072,-5.009,-5.0069,-5.0161,-5.0169,-5.0176,-5.0204,-5.0215,-5.0086,-5.0086,-5.0086,-5.0086,0,-4.9418,-4.9481,-4.9524,-4.9601,-4.9646,-4.971,-4.9751,-4.9792,-4.9807,-4.9839,-4.9921,-4.9974,-5.0044,-5.0069,-5.0084,-5.0167,-5.0159,-5.0154,-5.0131,-5.0187,-5.0214,-5.0225,-5.0088,-5.0088,-5.0087,-5.0087,0,0,-4.9482,-4.9577,-4.9593,-4.9628,-4.9701,-4.975,-4.9816,-4.9885,-4.9919,-4.9975,-5.003,-5.0119,-5.0115,-5.0156,-5.0176,-5.0218,-5.0281,-5.0208,-5.021,-5.0218,-5.0374,-5.0376,-5.0388,-5.0286,-5.0288,-5.029,-5.0369,0,-4.9555,-4.9671,-4.9702,-4.98,-4.9858,-4.9875,-4.9932,-4.9983,-5.0015,-5.007,-5.0106,-5.0168,-5.0158,-5.0183,-5.0225,-5.0264,-5.0312,-5.0259,-5.0336,-5.0339,-5.0318,-5.0403,-5.0405,-5.0477,-5.038,-5.0381,-5.0383,0,-4.9655,-4.9713,-4.9817,-4.9883,-4.9908,-4.9959,-5.0025,-5.0077,-5.0136,-5.0156,-5.0202,-5.022,-5.0288,-5.0265,-5.036,-5.0323,-5.0357,-5.0381,-5.0384,-5.0391,-5.0362,-5.041,-5.05,-5.0511,-5.04,-5.0399,-5.0397,0,-4.969,-4.9794,-4.987,-4.99,-4.9979,-5.0014,-5.0049,-5.0106,-5.0145,-5.0204,-5.023,-5.0295,-5.0331,-5.0381,-5.0416,-5.0396,-5.0508,-5.0487,-5.0526,-5.0526,-5.0547,-5.0545,-5.0643,-5.0572,-5.0572,-5.0572,-5.0572,0,-4.9767,-4.983,-4.9887,-4.9933,-5.0004,-5.0039,-5.0109,-5.0144,-5.0195,-5.0248,-5.0268,-5.0318,-5.0362,-5.0418,-5.0446,-5.052,-5.0536,-5.0554,-5.0561,-5.0552,-5.0549,-5.0573,-5.0568,-5.0575,-5.0574,-5.0574,-5.0573,0,-4.9818,-4.9858,-4.9941,-5.001,-5.0029,-5.0078,-5.0137,-5.0183,-5.0216,-5.0284,-5.0302,-5.0354,-5.0421,-5.0462,-5.0547,-5.0565,-5.0647,-5.0652,-5.0627,-5.0629,-5.0666,-5.0661,-5.0781,-5.0798,-5.0717,-5.0718,-5.0719,0,-4.9863,-4.9912,-4.9986,-5.0023,-5.0058,-5.0118,-5.0159,-5.0197,-5.0238,-5.031,-5.0347,-5.0416,-5.0472,-5.0579,-5.0624,-5.069,-5.0695,-5.0733,-5.0705,-5.0695,-5.0694,-5.069,-5.0695,-5.0737,-5.0737,-5.0738,-5.0739,0,-4.994,-4.9958,-5.0015,-5.0081,-5.0129,-5.0182,-5.0236,-5.0265,-5.0312,-5.0358,-5.0427,-5.0471,-5.0558,-5.0625,-5.0695,-5.0731,-5.0743,-5.0747,-5.076,-5.075,-5.0733,-5.0741,-5.0638,-5.0744,-5.0743,-5.0743,-5.0743,-5.0742,-4.9988,-5.0032,-5.0091,-5.0155,-5.0199,-5.0249,-5.0295,-5.0335,-5.0393,-5.0466,-5.0485,-5.0557,-5.0616,-5.0711,-5.0749,-5.0806,-5.08,-5.0818,-5.0822,-5.0826,-5.0826,-5.0725,-5.0819,-5.0819,-5.0819,-5.0819,-5.0819,0,-5.0065,-5.0104,-5.0162,-5.0236,-5.0287,-5.0294,-5.0353,-5.0395,-5.0458,-5.0512,-5.0568,-5.0647,-5.0713,-5.0765,-5.0833,-5.0868,-5.0875,-5.0885,-5.0882,-5.089,-5.0828,-5.081,-5.0878,-5.0878,-5.0878,-5.0878,-5.0878,-5.0878,-5.011,-5.0184,-5.021,-5.0306,-5.0345,-5.0416,-5.0449,-5.0495,-5.0538,-5.0626,-5.068,-5.0714,-5.0767,-5.0839,-5.09,-5.0914,-5.0937,-5.0946,-5.096,-5.0901,-5.0894,-5.0888,-5.0871,-5.0951,-5.0951,-5.1017,-5.1017,-5.1018]},{"header":{"parameterUnit":"m.s-1","parameterCategory":1,"la1":30.2991,"la2":30.254,"lo1":-89.0895,"lo2":-89.0444,"dy":0.0017,"dx":0.0017,"nx":28,"ny":28,"refTime":"2025-03-31T21:00:00:Z","depth":0,"parameterNumber":3,"parameterNumberName":"V-component_of_WINDS"},"data":[0,0,0,0,0,0,0,0,0,0,0,0,0,0,0,0,0,0,0,0,0,0,0,0,0,0,0,0,0,0,0,0,0,0,0,0,0,0,0,0,0,0,0,0,0,0,0,0,0,0,0,0,0,0,0,0,0,0,6.8493,6.8494,0,6.8591,6.8592,6.8593,6.8556,6.8554,6.8551,6.8549,6.8645,6.8649,6.8654,0,0,0,0,0,0,0,0,0,0,0,0,0,6.8272,6.8276,6.8493,6.8494,6.8495,6.8591,6.8592,6.8593,6.8556,6.8553,6.8551,6.8548,6.8643,6.8649,6.8654,0,0,0,0,0,0,0,0,0,0,0,0,0,6.8368,6.8277,6.8493,6.8488,6.8489,6.859,6.8592,6.8594,6.8557,6.8553,6.855,6.8547,6.8641,6.8648,6.8655,6.8765,0,0,6.8676,6.8679,0,0,0,0,0,0,0,0,6.8363,6.8376,6.8488,6.8489,6.849,6.8558,6.8549,6.8651,6.8558,6.8531,6.8549,6.8545,6.8618,6.8627,6.8652,6.8769,6.8773,6.8677,6.8681,6.8684,6.8686,0,0,0,0,0,0,0,6.8356,6.8372,6.8531,6.849,6.8491,6.8481,6.8491,6.8568,6.8592,6.8533,6.8531,6.8543,6.8618,6.8646,6.8654,6.8775,6.8677,6.8683,6.8687,6.869,6.8989,6.8993,0,0,0,0,0,0,6.835,6.8367,6.8528,6.8534,6.8417,6.8488,6.8499,6.8539,6.8591,6.8596,6.8546,6.8541,6.8636,6.8646,6.8658,6.8791,6.8684,6.869,6.8694,6.8986,6.899,6.8994,0,0,0,0,0,0,6.8345,6.8364,6.8524,6.845,6.847,6.8495,6.8541,6.8543,6.8571,6.8601,6.8604,6.857,6.8633,6.8648,6.8739,6.8794,6.8694,6.87,6.8981,6.8987,6.8992,6.9059,0,0,0,0,0,0,6.8339,6.8363,6.8405,6.8451,6.8474,6.8605,6.8544,6.8547,6.8583,6.8578,6.8624,6.8629,6.8632,6.8729,6.8746,6.8802,6.8705,6.8976,6.8984,6.8991,6.9052,6.9066,6.9078,0,0,0,0,0,6.8331,6.8419,6.8408,6.8427,6.8528,6.8609,6.8621,6.8624,6.8588,6.863,6.865,6.8627,6.8786,6.8739,6.8758,6.8816,6.8973,6.8982,6.899,6.9046,6.9063,6.9078,0,0,0,0,0,0,6.8376,6.8424,6.8413,6.8518,6.856,6.8602,6.8656,6.8642,6.8694,6.8687,6.8687,6.8698,6.8793,6.8813,6.8761,6.8927,6.8874,6.8886,6.891,6.8926,6.8939,6.8932,6.8711,0,0,0,0,0,6.8399,6.8462,6.85,6.8589,6.8611,6.863,6.8665,6.8665,6.8707,6.8724,6.875,6.8792,6.8851,6.889,6.8945,6.9055,6.9065,6.9105,6.9118,6.9128,6.9139,6.9201,6.9219,6.9022,6.9022,6.9022,0,0,6.8445,6.8479,6.8518,6.8599,6.8631,6.8696,6.8645,6.8715,6.8763,6.8734,6.8823,6.8844,6.889,6.8992,6.9038,6.9012,6.9196,6.9139,6.9148,6.9153,6.9212,6.923,6.9247,6.9028,6.9027,6.9026,0,0,6.8563,6.8595,6.8674,6.8708,6.8759,6.8771,6.8791,6.8836,6.885,6.894,6.892,6.8977,6.9078,6.9113,6.9143,6.9278,6.926,6.9296,6.9365,6.9425,6.9441,6.9454,6.9504,6.9521,6.9307,6.9307,6.9307,0,6.8613,6.8712,6.8715,6.8789,6.8825,6.8805,6.8885,6.8917,6.8983,6.9008,6.8979,6.9108,6.9137,6.9248,6.9281,6.9306,6.9329,6.9291,6.9438,6.9452,6.9465,6.9512,6.9531,6.9311,6.9311,6.9311,6.931,0,6.8773,6.8841,6.8899,6.8966,6.9008,6.9084,6.91,6.9142,6.9139,6.9155,6.9247,6.9282,6.9346,6.9372,6.9368,6.9483,6.9466,6.9438,6.9384,6.9488,6.9533,6.955,6.9318,6.9316,6.9315,6.9314,0,0,6.892,6.899,6.9011,6.9043,6.9098,6.9151,6.9227,6.9291,6.9329,6.9375,6.9439,6.9527,6.9502,6.9537,6.9537,6.959,6.9696,6.9555,6.9556,6.9581,6.9827,6.9849,6.987,6.9685,6.9688,6.9691,6.9824,0,6.9043,6.9178,6.9185,6.9307,6.9371,6.9354,6.942,6.9461,6.9479,6.9535,6.9553,6.9617,6.9578,6.96,6.9651,6.9673,6.9746,6.9663,6.9744,6.9747,6.9734,6.9893,6.9915,7.0039,6.9841,6.9844,6.9846,0,6.9205,6.926,6.9389,6.9438,6.9465,6.9525,6.9586,6.964,6.9687,6.9696,6.9737,6.973,6.9808,6.9752,6.986,6.9803,6.9837,6.9853,6.9858,6.9865,6.9803,6.9906,7.0079,7.0098,6.9873,6.9871,6.9869,0,6.9301,6.9407,6.9499,6.9526,6.9585,6.9627,6.9654,6.9697,6.9737,6.979,6.9816,6.9876,6.991,6.9957,6.9966,6.9925,7.0075,7.0019,7.0085,7.0085,7.0117,7.0115,7.0298,7.0137,7.0137,7.0137,7.0136,0,6.9439,6.9519,6.9543,6.96,6.9689,6.9697,6.9785,6.9808,6.9848,6.9908,6.9896,6.9953,6.9962,7.0021,7.0029,7.0118,7.0132,7.0142,7.0143,7.0144,7.0143,7.0166,7.0158,7.0142,7.0141,7.014,7.0139,0,6.9562,6.9581,6.968,6.9729,6.9744,6.9808,6.9849,6.9904,6.9921,6.9998,7.0016,7.0042,7.0112,7.0126,7.0207,7.0213,7.0319,7.0311,7.0304,7.0303,7.0368,7.0362,7.0574,7.0602,7.0422,7.0424,7.0425,0,6.9648,6.971,6.9767,6.9808,6.9837,6.9902,6.9944,6.9953,6.9996,7.0056,7.0104,7.0172,7.0227,7.0338,7.0364,7.0427,7.0421,7.0491,7.043,7.043,7.0424,7.0421,7.0427,7.0503,7.0504,7.0506,7.0507,0,6.9801,6.9809,6.9869,6.9934,6.9984,7.0035,7.0083,7.0117,7.0133,7.0182,7.0254,7.0298,7.0382,7.0451,7.0514,7.054,7.0527,7.0527,7.0545,7.0546,7.054,7.0546,7.0337,7.0521,7.052,7.0519,7.0518,7.0518,6.9909,6.9965,7.0014,7.0083,7.0121,7.0167,7.0221,7.0247,7.0307,7.0378,7.038,7.0459,7.0506,7.059,7.0621,7.0682,7.066,7.0687,7.0694,7.0701,7.0707,7.0531,7.0694,7.0693,7.0693,7.0693,7.0692,0,7.0063,7.0095,7.0158,7.0227,7.0282,7.0267,7.032,7.0366,7.0436,7.0482,7.0538,7.0621,7.0688,7.0721,7.0787,7.083,7.0826,7.0847,7.0844,7.0851,7.0722,7.07,7.085,7.085,7.085,7.085,7.085,7.085,7.0149,7.0242,7.0256,7.0368,7.0399,7.0478,7.051,7.0553,7.059,7.0685,7.0741,7.0763,7.0803,7.0873,7.0934,7.0942,7.0967,7.0992,7.0997,7.0876,7.086,7.0845,7.0824,7.0997,7.0997,7.1121,7.1122,7.1123]}]]